| time (UTC) | temp C | wind direction | speed KPH | gust KPH | rain 1hr cm | rain 24hr cm | rain mn cm | humidity % | barometer mb |
| 20260507000046 | 21 | 218 | 4.8 | 12.9 | 0.00 | 0.00 | 0.00 | 73 | 1009.4 |
| 20260506234546 | 21 | 219 | 6.4 | 14.5 | 0.00 | 0.00 | 0.00 | 72 | 1009.4 |
| 20260506233039 | 21 | 234 | 8.0 | 16.1 | 0.00 | 0.00 | 0.00 | 71 | 1009.4 |
| 20260506231542 | 21 | 227 | 6.4 | 16.1 | 0.00 | 0.00 | 0.00 | 70 | 1009.4 |
| 20260506230048 | 22 | 269 | 8.0 | 25.7 | 0.00 | 0.00 | 0.00 | 70 | 1009.3 |
| 20260506224543 | 22 | 210 | 8.0 | 25.7 | 0.00 | 0.00 | 0.00 | 70 | 1009.4 |
| 20260506223043 | 22 | 214 | 11.3 | 33.8 | 0.00 | 0.00 | 0.00 | 69 | 1009.2 |
| 20260506221543 | 22 | 196 | 11.3 | 25.7 | 0.00 | 0.00 | 0.00 | 70 | 1009.2 |
| 20260506220056 | 22 | 244 | 9.7 | 33.8 | 0.00 | 0.00 | 0.00 | 70 | 1009.2 |
| 20260506214538 | 22 | 252 | 16.1 | 32.2 | 0.00 | 0.00 | 0.00 | 70 | 1009.0 |
| 20260506213044 | 22 | 215 | 17.7 | 33.8 | 0.00 | 0.00 | 0.00 | 70 | 1009.0 |
| 20260506211544 | 21 | 219 | 16.1 | 30.6 | 0.00 | 0.00 | 0.00 | 71 | 1008.9 |
| 20260506210046 | 21 | 206 | 9.7 | 35.4 | 0.00 | 0.00 | 0.00 | 71 | 1008.9 |
| 20260506204550 | 21 | 182 | 19.3 | 33.8 | 0.00 | 0.00 | 0.00 | 71 | 1008.8 |
| 20260506203130 | 22 | 252 | 14.5 | 38.6 | 0.00 | 0.00 | 0.00 | 70 | 1008.3 |
| 20260506201546 | 22 | 208 | 17.7 | 40.2 | 0.00 | 0.00 | 0.00 | 69 | 1008.6 |
| 20260506200048 | 22 | 200 | 17.7 | 38.6 | 0.00 | 0.00 | 0.00 | 70 | 1008.9 |
| 20260506194541 | 22 | 212 | 20.9 | 37.0 | 0.00 | 0.00 | 0.00 | 69 | 1009.0 |
| 20260506193041 | 22 | 182 | 12.9 | 46.7 | 0.00 | 0.00 | 0.00 | 69 | 1009.0 |
| 20260506191551 | 22 | 242 | 17.7 | 45.1 | 0.00 | 0.00 | 0.00 | 68 | 1009.5 |
| 20260506190050 | 21 | 184 | 19.3 | 37.0 | 0.00 | 0.00 | 0.00 | 69 | 1010.0 |
| 20260506184554 | 21 | 250 | 17.7 | 35.4 | 0.00 | 0.00 | 0.00 | 71 | 1010.0 |
| 20260506183044 | 21 | 221 | 12.9 | 37.0 | 0.00 | 0.00 | 0.00 | 73 | 1010.0 |
| 20260506181542 | 20 | 194 | 24.1 | 43.5 | 0.00 | 0.00 | 0.00 | 73 | 1010.3 |
| 20260506180045 | 20 | 223 | 19.3 | 43.5 | 0.00 | 0.00 | 0.00 | 75 | 1010.7 |
| 20260506174538 | 20 | 202 | 19.3 | 43.5 | 0.00 | 0.00 | 0.00 | 73 | 1010.3 |
| 20260506173052 | 21 | 231 | 12.9 | 48.3 | 0.00 | 0.00 | 0.00 | 73 | 1010.4 |
| 20260506171543 | 20 | 229 | 20.9 | 40.2 | 0.00 | 0.00 | 0.00 | 72 | 1010.9 |
| 20260506170046 | 20 | 216 | 19.3 | 40.2 | 0.00 | 0.00 | 0.00 | 71 | 1011.0 |
| 20260506164547 | 21 | 211 | 19.3 | 40.2 | 0.00 | 0.00 | 0.00 | 69 | 1011.4 |
| 20260506163056 | 22 | 206 | 16.1 | 49.9 | 0.00 | 0.00 | 0.00 | 63 | 1011.7 |
| 20260506161542 | 22 | 207 | 19.3 | 40.2 | 0.00 | 0.00 | 0.00 | 61 | 1011.8 |
| 20260506160040 | 23 | 260 | 16.1 | 37.0 | 0.00 | 0.00 | 0.00 | 59 | 1011.8 |
| 20260506154552 | 22 | 213 | 19.3 | 45.1 | 0.00 | 0.00 | 0.00 | 59 | 1011.9 |
| 20260506153042 | 22 | 239 | 17.7 | 49.9 | 0.00 | 0.00 | 0.00 | 60 | 1011.7 |
| 20260506151544 | 22 | 211 | 17.7 | 35.4 | 0.00 | 0.00 | 0.00 | 62 | 1011.9 |
| 20260506150042 | 22 | 223 | 19.3 | 40.2 | 0.00 | 0.00 | 0.00 | 60 | 1011.9 |
| 20260506144547 | 22 | 229 | 12.9 | 40.2 | 0.00 | 0.00 | 0.00 | 61 | 1012.0 |
| 20260506143042 | 22 | 257 | 19.3 | 40.2 | 0.00 | 0.00 | 0.00 | 60 | 1011.9 |
| 20260506141549 | 22 | 184 | 22.5 | 41.8 | 0.00 | 0.00 | 0.00 | 60 | 1011.8 |
| 20260506140049 | 22 | 194 | 14.5 | 41.8 | 0.00 | 0.00 | 0.00 | 62 | 1011.7 |
| 20260506134546 | 22 | 215 | 19.3 | 43.5 | 0.00 | 0.00 | 0.00 | 62 | 1011.9 |
| 20260506133048 | 21 | 239 | 19.3 | 40.2 | 0.00 | 0.00 | 0.00 | 63 | 1011.9 |
| 20260506131544 | 21 | 184 | 17.7 | 38.6 | 0.00 | 0.00 | 0.00 | 65 | 1012.2 |
| 20260506130042 | 20 | 208 | 11.3 | 32.2 | 0.00 | 0.00 | 0.00 | 68 | 1012.5 |
| 20260506124546 | 19 | 234 | 14.5 | 32.2 | 0.00 | 0.00 | 0.00 | 71 | 1012.7 |
| 20260506123043 | 19 | 232 | 11.3 | 25.7 | 0.00 | 0.00 | 0.00 | 71 | 1012.5 |
| 20260506121547 | 19 | 217 | 16.1 | 30.6 | 0.00 | 0.00 | 0.00 | 72 | 1012.4 |
| 20260506120047 | 18 | 215 | 12.9 | 25.7 | 0.00 | 0.00 | 0.00 | 74 | 1012.4 |
| 20260506114542 | 18 | 232 | 8.0 | 29.0 | 0.00 | 0.00 | 0.00 | 75 | 1012.4 |
| 20260506113044 | 18 | 198 | 11.3 | 30.6 | 0.00 | 0.00 | 0.00 | 74 | 1012.3 |
| 20260506111542 | 18 | 228 | 12.9 | 25.7 | 0.00 | 0.00 | 0.00 | 75 | 1012.3 |
| 20260506110043 | 17 | 190 | 12.9 | 20.9 | 0.00 | 0.00 | 0.00 | 76 | 1012.3 |
| 20260506104547 | 17 | 169 | 9.7 | 29.0 | 0.00 | 0.00 | 0.00 | 77 | 1012.5 |
| 20260506103043 | 16 | 198 | 9.7 | 20.9 | 0.00 | 0.00 | 0.00 | 78 | 1012.6 |
| 20260506101544 | 16 | 218 | 9.7 | 25.7 | 0.00 | 0.00 | 0.00 | 79 | 1012.5 |
| 20260506100046 | 16 | 188 | 9.7 | 17.7 | 0.00 | 0.00 | 0.00 | 79 | 1012.3 |
| 20260506094543 | 16 | 179 | 9.7 | 20.9 | 0.00 | 0.00 | 0.00 | 79 | 1012.4 |
| 20260506093051 | 16 | 182 | 9.7 | 17.7 | 0.00 | 0.00 | 0.00 | 79 | 1012.4 |
| 20260506091544 | 16 | 209 | 8.0 | 19.3 | 0.00 | 0.00 | 0.00 | 79 | 1012.4 |
| 20260506090049 | 16 | 169 | 9.7 | 20.9 | 0.00 | 0.00 | 0.00 | 79 | 1012.4 |
| 20260506084546 | 16 | 171 | 9.7 | 19.3 | 0.00 | 0.00 | 0.00 | 79 | 1012.5 |
| 20260506083047 | 16 | 202 | 9.7 | 19.3 | 0.00 | 0.00 | 0.00 | 79 | 1012.5 |
| 20260506081544 | 16 | 175 | 11.3 | 22.5 | 0.00 | 0.00 | 0.00 | 79 | 1012.6 |
| 20260506073046 | 17 | 190 | 9.7 | 20.9 | 0.00 | 0.00 | 0.00 | 79 | 1012.5 |
| 20260506071544 | 17 | 205 | 9.7 | 22.5 | 0.00 | 0.00 | 0.00 | 78 | 1012.4 |
| 20260506061548 | 18 | 176 | 12.9 | 24.1 | 0.00 | 0.00 | 0.00 | 75 | 1012.7 |
| 20260506044544 | 18 | 209 | 12.9 | 33.8 | 0.00 | 0.00 | 0.00 | 73 | 1013.2 |
| 20260506043043 | 18 | 189 | 11.3 | 30.6 | 0.00 | 0.00 | 0.00 | 73 | 1013.2 |
| 20260506041556 | 19 | 186 | 17.7 | 32.2 | 0.00 | 0.00 | 0.00 | 73 | 1013.3 |
| 20260506040042 | 19 | 183 | 17.7 | 30.6 | 0.00 | 0.00 | 0.00 | 72 | 1013.3 |
| 20260506034551 | 19 | 192 | 16.1 | 40.2 | 0.00 | 0.00 | 0.00 | 72 | 1013.4 |
| 20260506033043 | 19 | 232 | 16.1 | 37.0 | 0.00 | 0.00 | 0.00 | 71 | 1013.4 |
| 20260506031543 | 20 | 205 | 16.1 | 37.0 | 0.00 | 0.00 | 0.00 | 70 | 1013.4 |
| 20260506030043 | 20 | 205 | 12.9 | 32.2 | 0.00 | 0.00 | 0.00 | 70 | 1013.4 |
| 20260506024543 | 20 | 206 | 12.9 | 30.6 | 0.00 | 0.00 | 0.00 | 70 | 1013.4 |
| 20260506023043 | 20 | 188 | 14.5 | 29.0 | 0.00 | 0.00 | 0.00 | 70 | 1013.5 |
| 20260506021544 | 20 | 173 | 14.5 | 35.4 | 0.00 | 0.00 | 0.00 | 69 | 1013.4 |
| 20260506020051 | 20 | 207 | 12.9 | 29.0 | 0.00 | 0.00 | 0.00 | 69 | 1013.4 |
| 20260506014545 | 20 | 192 | 16.1 | 30.6 | 0.00 | 0.00 | 0.00 | 68 | 1013.4 |
| 20260506013052 | 20 | 213 | 16.1 | 37.0 | 0.00 | 0.00 | 0.00 | 68 | 1013.0 |
| 20260506011543 | 20 | 207 | 12.9 | 33.8 | 0.00 | 0.00 | 0.00 | 68 | 1012.9 |
| 20260506010041 | 20 | 180 | 14.5 | 35.4 | 0.00 | 0.00 | 0.00 | 68 | 1012.7 |
| 20260506004543 | 20 | 199 | 12.9 | 35.4 | 0.00 | 0.00 | 0.00 | 68 | 1012.5 |
| 20260506003042 | 20 | 218 | 16.1 | 35.4 | 0.00 | 0.00 | 0.00 | 67 | 1012.3 |
| 20260506001553 | 21 | 179 | 14.5 | 32.2 | 0.00 | 0.00 | 0.00 | 66 | 1012.4 |